TimeMDT,TemperatureF,Dew PointF,Humidity,Sea Level PressureIn,VisibilityMPH,Wind Direction,Wind SpeedMPH,Gust SpeedMPH,PrecipitationIn,Events,Conditions,WindDirDegrees,DateUTC
12:51 AM,61.0,42.1,50,29.96,10.0,NNW,3.5,-,N/A,,Clear,330,2013-08-21 06:51:00
1:51 AM,59.0,43.0,55,29.97,10.0,NNW,5.8,-,N/A,,Clear,330,2013-08-21 07:51:00
2:51 AM,57.9,44.1,60,29.98,10.0,NNW,5.8,-,N/A,,Clear,340,2013-08-21 08:51:00
3:51 AM,53.1,42.1,66,29.98,10.0,Calm,Calm,-,N/A,,Clear,0,2013-08-21 09:51:00
4:51 AM,61.0,41.0,48,29.96,10.0,North,9.2,-,N/A,,Clear,360,2013-08-21 10:51:00
5:51 AM,48.0,39.9,74,29.99,10.0,NNW,3.5,-,N/A,,Clear,330,2013-08-21 11:51:00
6:51 AM,50.0,39.9,68,29.99,10.0,Calm,Calm,-,N/A,,Clear,0,2013-08-21 12:51:00
7:51 AM,50.0,39.9,68,30.01,10.0,Calm,Calm,-,N/A,,Clear,0,2013-08-21 13:51:00
8:51 AM,55.9,44.1,64,30.03,10.0,Calm,Calm,-,N/A,,Clear,0,2013-08-21 14:51:00
9:51 AM,64.0,45.0,50,30.01,10.0,Calm,Calm,-,N/A,,Clear,0,2013-08-21 15:51:00
10:51 AM,70.0,42.1,36,30.00,10.0,Calm,Calm,-,N/A,,Clear,0,2013-08-21 16:51:00
11:51 AM,75.0,43.0,32,29.99,10.0,Calm,Calm,-,N/A,,Clear,0,2013-08-21 17:51:00
12:51 PM,79.0,42.1,27,29.99,10.0,Variable,3.5,-,N/A,,Clear,0,2013-08-21 18:51:00
1:51 PM,82.9,37.0,19,29.98,10.0,SE,6.9,-,N/A,,Clear,140,2013-08-21 19:51:00
2:51 PM,84.0,37.0,19,29.97,10.0,Variable,4.6,-,N/A,,Clear,0,2013-08-21 20:51:00
3:51 PM,87.1,30.9,13,29.96,10.0,West,9.2,16.1,N/A,,Clear,280,2013-08-21 21:51:00
4:51 PM,86.0,33.1,15,29.94,10.0,WSW,9.2,16.1,N/A,,Clear,240,2013-08-21 22:51:00
5:51 PM,84.0,33.1,16,29.96,10.0,Variable,3.5,-,N/A,,Clear,0,2013-08-21 23:51:00
6:51 PM,82.9,34.0,17,29.95,10.0,SW,10.4,-,N/A,,Clear,220,2013-08-22 00:51:00
7:51 PM,81.0,34.0,18,29.96,10.0,SW,6.9,-,N/A,,Clear,230,2013-08-22 01:51:00
8:51 PM,75.9,36.0,23,29.97,10.0,NNW,3.5,-,N/A,,Clear,340,2013-08-22 02:51:00
9:51 PM,69.1,39.0,33,29.98,10.0,NE,3.5,-,N/A,,Clear,50,2013-08-22 03:51:00
10:51 PM,66.0,39.9,38,29.99,10.0,Calm,Calm,-,N/A,,Clear,0,2013-08-22 04:51:00
11:51 PM,66.0,42.1,42,29.97,10.0,NNE,5.8,-,N/A,,Clear,20,2013-08-22 05:51:00